Location: Asheville, NC
(35.6000°N, 82.5500°W)
Time: 17:30:31

NO-84 - Pass Details

Date: 16 March 2018
Orbit: 339 x 558 km, 55.0° (Epoch: 15 March)

Event Time Altitude Azimuth Distance (km) Brightness Sun altitude
Exits shadow 04:54:55 13° 65° (ENE) 1,476 ? -33.4°
Drops below altitude 10° 04:55:33 10° 74° (ENE) 1,621 ? -33.3°
Sets 04:58:12 0° 96° (E) 2,441 ? -32.8°
